Presure
382 366 353 361 334 289 262 265 267 352 355 316 286 277 303 319 335 276 262 242 210 227 211 211 199 192 194 199 201 190 186 184 183 185 179 173 164 164 165 164 163 169 166 162
338 365 352 348 363 325 304 267 248 284 332 363 318 299 294 288 287 298 268 258 243 223 240 228 206 205 206 199 208 204 197 192 189 178 186 179 174 173 171 171 172 171 170 167
382 345 372 345 351 351 320 302 285 248 328 347 308 296 286 299 299 296 306 261 252 236 223 232 232 210 202 203 202 198 189 193 201 198 191 183 181 179 175 173 174 176 174 170
412 392 356 363 346 323 333 338 309 273 262 301 314 306 290 283 283 289 282 291 254 244 238 234 231 225 145 210 207 208 200 198 203 200 190 184 184 187 180 180 178 173 171 169
340 413 390 391 340 335 323 322 305 304 263 308 290 314 311 331 315 299 295 291 272 274 249 237 247 230 229 226 206 209 215 203 198 211 201 200 198 192 189 190 181 180 180 182
363 341 417 396 363 332 328 310 321 297 328 295 236 282 326 319 324 307 283 276 276 266 261 272 253 242 242 220 231 227 229 205 219 217 207 196 189 189 198 200 190 190 194 191
373 357 342 395 397 380 334 320 327 321 296 288 284 265 239 304 295 287 290 280 280 282 282 269 269 268 271 238 232 233 223 215 217 212 210 210 177 206 203 197 194 198 191 186
380 376 356 344 427 400 380 341 328 315 305 299 284 282 284 266 270 268 268 277 297 299 308 319 318 312 270 260 271 249 236 236 235 222 208 211 215 215 204 205 201 201 199 193
401 385 374 364 341 352 408 372 356 317 321 294 290 279 279 274 279 255 281 294 290 289 296 293 294 307 310 310 295 258 265 269 230 235 236 232 219 214 211 209 202 196 195 201
405 388 385 376 359 341 326 435 373 368 316 316 296 295 291 303 280 280 278 248 282 282 264 308 291 304 304 305 312 316 264 255 254 253 260 235 233 230 226 234 220 224 202 207
262 414 398 383 375 359 340 324 513 380 357 352 330 318 305 299 295 282 282 281 274 271 255 267 277 268 279 285 282 291 285 278 286 283 273 275 268 257 254 240 231 220 217 219
246 280 404 391 378 372 360 341 325 369 396 362 341 334 333 334 337 323 290 290 281 278 276 272 273 261 266 275 275 276 278 291 275 297 274 286 281 281 277 271 256 253 251 239
240 256 366 413 385 376 364 360 339 324 314 479 369 350 329 316 320 324 327 295 288 283 283 284 278 266 267 264 270 275 281 275 274 267 286 277 268 285 290 296 300 302 283 255
236 245 260 421 411 387 376 360 355 340 324 313 342 405 356 345 321 312 307 313 318 323 319 319 307 278 277 277 277 255 237 267 278 287 308 311 294 291 286 284 266 265 271 279
235 239 253 369 424 408 380 370 357 350 345 325 314 306 379 400 347 343 321 304 301 300 294 304 311 313 308 307 310 305 304 301 286 245 291 292 284 280 289 296 289 279 279 279
237 243 245 290 428 422 400 376 371 359 350 340 330 313 305 303 357 408 375 346 343 315 302 296 294 296 297 299 292 284 288 287 281 280 293 288 276 283 279 279 281 283 285 286
235 243 243 260 440 435 422 397 378 361 355 358 342 334 320 306 300 297 330 327 394 389 351 341 325 302 297 295 294 296 288 291 278 311 282 289 286 278 279 279 281 280 255 285
235 242 241 254 440 442 435 420 403 384 356 358 349 344 338 324 312 299 292 292 324 316 337 378 394 397 382 361 323 306 301 297 293 289 301 286 277 278 282 281 284 285 280 282
225 244 245 255 449 450 448 440 419 405 382 361 355 351 350 339 330 317 300 291 289 294 335 315 312 332 349 359 369 380 388 389 357 305 302 303 300 299 302 306 312 319 315 317
225 244 246 258 459 472 469 470 450 418 399 384 364 356 351 343 340 333 319 305 298 290 287 291 321 305 305 323 331 338 348 354 358 360 363 368 374 378 371 372 371 356 357 338
232 243 248 263 476 454 444 434 427 419 420 428 388 372 363 355 345 343 336 318 312 299 288 281 282 292 320 316 304 308 316 320 328 332 336 337 336 338 337 338 339 335 332 328
238 246 251 274 464 451 440 439 434 423 418 414 405 402 374 360 364 346 353 341 324 309 296 289 280 279 283 295 305 308 311 310 304 303 306 312 315 318 317 318 319 317 315 312
238 251 258 296 463 453 446 434 426 430 431 417 415 401 431 387 371 360 349 353 345 327 307 296 288 281 277 277 277 281 284 292 296 298 298 296 294 293 293 293 294 294 293 292
241 255 266 470 464 453 442 423 436 439 438 440 441 427 397 413 405 395 378 369 359 348 329 307 299 289 279 277 273 275 272 271 280 279 281 281 283 284 283 281 280 280 279 276
248 261 478 472 465 454 433 424 430 423 426 432 431 427 426 401 395 386 369 406 366 366 348 326 308 303 291 281 277 276 271 269 271 267 264 265 266 267 265 266 265 264 263 263
258 309 469 473 464 464 433 422 423 412 406 411 428 433 426 422 416 398 388 391 392 388 376 346 326 310 305 300 292 283 277 275 272 268 267 266 264 261 260 260 261 261 261 261
268 478 472 475 462 464 441 420 407 409 398 398 401 411 423 422 420 431 416 387 376 381 376 351 340 325 315 310 306 301 294 287 281 278 276 274 272 269 268 267 266 266 266 267
Wind_Speed
11 18 19 26 38 40 36 35 37 33 53 67 76 84 56 56 67 108 116 122 132 128 132 134 137 129 130 129 127 125 122 118 115 116 113 112 105 104 105 102 101 102 100 94
12 14 18 23 30 44 41 40 39 39 40 59 67 71 79 85 87 87 108 116 118 134 114 124 137 137 141 130 127 130 133 124 122 112 117 116 115 116 113 112 113 109 108 103
8 5 18 21 32 37 44 43 41 45 40 42 64 68 70 67 75 79 78 108 113 118 129 125 127 136 135 133 135 130 112 120 124 123 123 122 121 120 119 119 118 118 115 112
10 10 7 24 29 37 37 42 45 45 45 43 51 68 74 77 78 80 86 84 112 117 124 130 129 127 74 135 136 135 132 129 127 126 121 114 120 125 122 122 122 121 118 114
32 14 11 19 24 30 38 45 45 44 46 46 48 46 55 59 80 84 80 82 95 103 121 125 123 128 126 127 134 134 134 130 116 129 128 128 129 129 125 128 127 125 126 127
31 27 15 14 33 28 32 40 42 48 51 48 51 49 43 50 54 72 76 78 83 93 103 108 120 122 122 132 128 131 129 134 132 133 134 126 123 124 131 133 130 129 131 133
30 26 22 12 18 33 35 37 43 49 52 48 47 51 56 50 59 69 78 79 84 91 97 102 106 112 115 127 130 130 136 136 136 137 136 135 109 138 138 135 132 137 133 128
32 25 22 17 11 30 32 44 44 46 57 58 52 52 53 56 60 63 66 70 69 73 75 80 91 97 111 116 117 128 131 131 132 134 134 134 134 140 137 139 137 137 136 130
34 29 21 17 15 11 33 35 51 50 63 52 56 55 59 59 61 64 64 67 68 69 69 70 77 76 82 87 102 120 120 122 128 131 133 136 146 144 142 136 128 125 125 134
40 34 25 18 15 14 12 31 39 52 57 68 61 65 67 73 69 68 68 71 66 66 71 61 64 61 64 65 67 72 112 118 121 124 125 137 138 140 140 138 137 142 130 139
137 34 27 23 17 14 15 15 15 47 50 64 69 73 72 72 76 73 73 72 69 70 73 72 68 74 72 72 78 76 81 93 95 110 121 121 127 134 136 136 137 140 141 144
132 118 30 26 22 16 14 17 17 18 51 52 57 63 67 69 71 82 78 81 77 76 75 74 72 78 76 74 80 81 84 82 96 83 105 101 105 107 115 121 129 132 133 136
124 136 63 24 26 22 19 16 20 22 23 29 58 58 62 65 67 70 76 81 81 79 81 82 82 81 82 83 84 84 81 86 90 98 92 101 104 96 94 92 91 94 109 131
121 128 133 28 24 26 24 23 21 24 27 27 28 53 62 61 67 69 71 73 74 72 75 79 89 88 88 88 87 90 92 88 86 82 74 72 76 80 87 91 105 107 106 104
118 122 138 66 28 26 29 29 28 27 28 32 32 33 33 55 65 68 71 74 75 76 77 75 77 79 85 86 83 82 81 85 88 92 81 79 81 84 82 82 87 95 98 101
126 126 130 120 29 30 28 32 33 33 31 33 36 38 38 37 37 49 67 71 75 79 81 81 82 83 83 83 86 87 87 86 85 83 85 86 88 89 89 90 92 93 95 98
123 129 130 136 34 30 32 32 36 38 38 36 38 41 42 43 41 40 39 42 50 63 78 80 87 87 88 87 87 88 91 92 92 89 89 91 91 90 92 92 93 95 98 100
124 129 126 141 40 34 32 35 38 40 41 42 42 43 43 46 46 44 44 45 44 45 45 51 58 66 74 82 92 94 94 93 90 87 89 91 91 91 92 94 97 98 99 100
107 131 131 145 42 39 35 35 37 41 44 45 46 46 46 47 48 48 48 49 47 45 43 40 40 39 44 51 57 62 67 70 82 99 98 98 97 94 93 94 94 93 93 93
110 133 137 146 46 42 38 36 38 40 45 50 50 49 49 49 49 51 51 53 51 46 42 42 40 44 44 41 40 41 44 46 49 51 54 58 59 61 62 62 62 67 66 73
124 133 142 145 47 43 39 36 36 38 41 44 51 53 53 52 52 52 54 56 55 49 47 45 47 45 41 40 39 40 39 40 41 42 45 48 50 51 54 55 55 57 58 60
132 140 147 145 45 42 39 35 34 34 36 39 43 49 51 52 54 53 55 58 58 53 53 49 47 48 44 40 38 38 39 39 41 41 42 42 43 43 45 46 46 47 48 49
133 147 149 138 42 39 37 34 33 33 33 35 38 42 46 52 52 53 56 56 60 58 56 55 51 51 49 44 44 44 45 42 40 39 40 41 42 43 44 46 46 47 48 50
139 152 150 46 39 37 35 34 31 29 30 31 32 36 41 42 47 51 55 58 58 61 60 58 57 55 53 51 50 49 48 47 45 44 44 44 44 45 47 48 49 50 51 52
148 153 49 42 38 34 34 33 30 28 27 27 29 31 33 38 41 44 48 49 54 57 61 60 60 60 58 57 56 55 52 51 50 49 49 49 50 51 52 53 54 54 55 57
156 136 47 39 35 30 32 32 29 29 29 27 26 28 31 34 37 40 42 44 47 51 57 60 60 61 61 61 61 61 60 59 57 56 55 54 55 57 57 58 59 60 61 62
155 50 45 37 34 29 28 29 31 29 29 29 27 27 29 31 33 36 38 40 43 46 50 55 58 59 60 62 63 64 65 65 64 63 63 63 63 63 63 64 65 66 67 69
Wind_Direction
195 203 192 190 195 212 217 209 205 209 203 195 209 218 209 213 211 222 222 223 229 226 232 229 234 239 239 237 234 240 242 244 243 242 244 247 252 254 256 258 259 258 262 263
353 219 207 198 191 205 213 215 208 208 205 198 201 211 221 223 223 222 222 223 224 228 228 230 235 236 234 237 232 233 236 240 241 244 242 245 248 249 251 253 255 257 258 262
271 310 225 216 200 200 213 215 215 211 210 204 204 210 217 213 215 223 224 220 225 226 228 229 230 234 237 237 237 243 242 242 238 237 240 242 244 246 248 250 251 253 256 259
296 261 249 221 209 209 209 217 217 211 210 209 205 209 216 225 226 225 225 222 223 226 228 231 231 233 233 236 237 236 240 241 239 238 242 241 244 243 247 248 250 254 256 258
18 296 259 217 221 214 213 219 224 220 213 214 208 212 216 222 221 224 227 222 225 226 228 231 232 233 233 235 240 240 238 242 244 237 240 241 242 244 246 245 248 250 251 252
14 13 273 250 222 232 219 219 219 220 221 220 223 212 215 214 218 219 217 224 222 227 231 232 232 234 233 236 236 236 237 243 239 239 241 245 246 247 245 245 248 249 249 251
9 6 3 287 254 228 231 224 221 215 222 225 222 217 224 204 202 214 222 225 228 229 229 230 232 234 233 234 236 237 238 240 241 242 243 242 246 243 245 247 248 248 252 255
7 4 355 352 335 243 230 229 224 220 216 221 227 227 225 218 218 220 224 225 228 230 231 234 236 236 233 236 237 236 239 240 239 242 248 247 245 245 247 248 249 250 252 253
359 1 356 344 334 325 235 229 224 227 216 226 225 230 231 234 231 225 229 231 231 232 232 233 232 234 233 234 236 238 240 240 242 243 243 243 244 246 248 249 250 253 255 255
356 353 349 346 330 317 302 236 230 226 231 222 232 232 232 230 234 235 234 230 233 230 232 231 229 231 227 231 233 235 237 241 243 242 242 244 246 246 247 247 249 250 254 257
13 348 340 336 332 311 296 284 252 233 229 231 234 236 239 237 234 235 236 236 235 234 234 233 232 231 231 231 232 234 229 233 237 239 243 245 246 246 246 248 250 252 253 254
12 8 337 327 320 312 292 279 268 257 233 234 231 235 237 236 235 236 236 237 237 238 239 239 237 233 235 238 237 236 236 242 239 247 240 244 245 248 249 250 249 250 251 252
9 8 356 318 314 303 296 275 266 263 256 237 238 236 233 237 239 237 237 238 240 241 242 242 238 239 241 240 243 245 249 243 241 240 242 242 245 247 248 245 244 245 249 253
5 7 3 325 304 294 286 282 270 257 257 254 248 235 240 239 235 238 239 239 239 237 239 238 242 242 243 244 245 243 243 246 248 249 248 246 245 243 245 246 250 251 252 251
3 4 3 351 309 291 283 277 274 265 254 253 252 248 240 238 242 242 238 239 241 242 241 241 239 237 239 242 242 242 243 244 244 246 245 243 245 245 244 244 245 247 248 249
1 1 2 356 311 296 282 271 266 263 257 253 247 250 251 247 238 242 242 244 245 241 243 243 244 244 243 240 242 246 244 245 248 248 247 246 247 245 246 247 248 247 247 248
358 358 359 356 317 295 283 273 261 263 263 255 249 245 245 248 248 247 241 240 242 244 245 245 242 243 245 246 246 244 244 244 247 246 248 246 246 249 250 251 250 251 254 253
356 356 357 355 318 305 285 273 264 254 261 256 254 249 244 244 245 247 248 247 244 243 243 245 246 248 250 249 247 247 248 249 248 248 246 245 248 249 249 251 252 253 255 256
352 353 354 352 317 306 293 276 266 258 254 257 257 254 247 245 243 243 244 248 250 250 246 247 245 247 248 249 250 251 252 253 249 247 250 250 251 253 254 256 257 258 257 258
349 350 352 349 315 304 294 281 269 262 254 252 255 254 251 250 247 244 243 244 246 248 248 247 242 242 241 241 243 246 248 248 248 248 249 251 252 253 252 253 253 253 253 254
346 347 348 346 311 305 298 290 279 269 261 253 252 251 251 249 247 246 243 243 244 246 246 245 250 249 242 242 241 242 242 243 244 244 244 245 246 246 247 248 248 248 249 250
345 345 345 343 310 304 300 292 283 275 266 260 253 249 249 250 248 247 245 242 243 243 246 246 247 251 251 247 240 240 242 241 242 242 242 243 244 243 244 246 247 248 249 250
342 343 341 338 311 305 299 295 288 280 272 264 258 252 249 247 247 244 245 243 243 240 241 244 245 247 250 248 248 247 248 245 242 242 242 242 243 244 244 246 246 248 249 250
340 340 339 317 311 305 300 299 291 285 277 271 266 259 252 250 247 245 244 243 241 241 238 241 242 244 247 249 249 248 249 251 249 248 247 246 247 247 248 248 250 252 253 255
338 337 318 315 309 303 300 298 292 290 285 277 268 261 256 251 249 246 245 243 242 240 239 238 240 241 242 245 249 252 251 252 252 250 251 252 253 254 255 256 257 258 259 261
334 333 316 312 306 296 297 295 289 289 287 283 276 267 260 255 252 250 247 245 243 241 239 239 239 240 242 242 244 246 250 253 254 254 254 254 255 257 258 259 261 263 264 265
334 315 314 309 305 295 292 291 290 285 285 283 281 277 271 267 262 257 252 248 245 244 241 240 240 240 241 243 244 245 247 249 251 254 255 256 257 257 258 260 262 263 264 266